TimeCDT,TemperatureF,Dew PointF,Humidity,Sea Level PressureIn,VisibilityMPH,Wind Direction,Wind SpeedMPH,Gust SpeedMPH,PrecipitationIn,Events,Conditions,WindDirDegrees,DateUTC
12:15 AM,59.9,58.6,96,29.96,10.0,Calm,Calm,-,N/A,,Clear,0,2012-10-03 05:15:00
12:35 AM,60.1,58.5,94,29.96,10.0,Calm,Calm,-,N/A,,Clear,0,2012-10-03 05:35:00
12:55 AM,59.7,58.6,96,29.96,10.0,Calm,Calm,-,N/A,,Clear,0,2012-10-03 05:55:00
1:15 AM,59.9,57.9,93,29.96,10.0,Calm,Calm,-,N/A,,Clear,0,2012-10-03 06:15:00
1:35 AM,59.5,58.3,96,29.96,10.0,Calm,Calm,-,N/A,,Clear,0,2012-10-03 06:35:00
1:55 AM,59.2,57.9,96,29.96,10.0,Calm,Calm,-,N/A,,Clear,0,2012-10-03 06:55:00
2:15 AM,59.0,57.7,96,29.96,10.0,Calm,Calm,-,N/A,,Clear,0,2012-10-03 07:15:00
4:15 AM,57.6,56.3,96,29.96,10.0,Calm,Calm,-,N/A,,Clear,0,2012-10-03 09:15:00
4:35 AM,57.6,56.7,97,29.96,10.0,Calm,Calm,-,N/A,,Clear,0,2012-10-03 09:35:00
4:55 AM,57.6,56.5,96,29.96,10.0,Calm,Calm,-,N/A,,Clear,0,2012-10-03 09:55:00
5:15 AM,57.7,56.8,97,29.97,10.0,Calm,Calm,-,N/A,,Clear,0,2012-10-03 10:15:00
5:35 AM,57.7,56.7,96,29.97,10.0,Calm,Calm,-,N/A,,Clear,0,2012-10-03 10:35:00
5:55 AM,57.6,56.8,97,29.98,10.0,Calm,Calm,-,N/A,,Clear,0,2012-10-03 10:55:00
6:15 AM,57.2,56.3,97,29.98,10.0,Calm,Calm,-,N/A,,Clear,0,2012-10-03 11:15:00
6:35 AM,56.7,55.9,97,29.98,10.0,Calm,Calm,-,N/A,,Clear,0,2012-10-03 11:35:00
6:55 AM,56.3,55.4,97,29.98,10.0,Calm,Calm,-,N/A,,Clear,0,2012-10-03 11:55:00
7:15 AM,55.8,54.9,97,29.99,10.0,Calm,Calm,-,N/A,,Clear,0,2012-10-03 12:15:00
7:35 AM,55.6,54.5,96,29.99,10.0,Calm,Calm,-,N/A,,Clear,0,2012-10-03 12:35:00
7:55 AM,55.6,54.7,97,30.00,10.0,Calm,Calm,-,N/A,,Clear,0,2012-10-03 12:55:00
8:15 AM,56.7,55.4,96,30.00,10.0,Calm,Calm,-,N/A,,Clear,0,2012-10-03 13:15:00
8:35 AM,58.5,56.3,93,30.00,10.0,Calm,Calm,-,N/A,,Clear,0,2012-10-03 13:35:00
8:55 AM,61.0,56.7,86,30.01,10.0,Calm,Calm,-,N/A,,Clear,0,2012-10-03 13:55:00
9:15 AM,63.7,56.5,77,30.02,10.0,Calm,Calm,-,N/A,,Clear,0,2012-10-03 14:15:00
9:35 AM,65.7,56.7,73,30.03,10.0,Calm,Calm,-,N/A,,Clear,0,2012-10-03 14:35:00
9:55 AM,67.6,57.4,70,30.03,10.0,SSW,4.6,-,N/A,,Clear,210,2012-10-03 14:55:00
10:15 AM,69.4,57.7,66,30.04,10.0,South,4.6,-,N/A,,Clear,180,2012-10-03 15:15:00
10:35 AM,70.7,57.2,62,30.04,10.0,South,3.5,-,N/A,,Clear,180,2012-10-03 15:35:00
10:55 AM,72.0,56.8,59,30.04,10.0,SSW,5.8,-,N/A,,Clear,200,2012-10-03 15:55:00
11:15 AM,73.2,57.0,57,30.04,10.0,SSE,3.5,-,N/A,,Clear,160,2012-10-03 16:15:00
11:35 AM,74.5,56.7,54,30.04,10.0,SSE,6.9,-,N/A,,Clear,150,2012-10-03 16:35:00
11:55 AM,75.6,56.5,51,30.04,10.0,SSE,5.8,-,N/A,,Clear,160,2012-10-03 16:55:00
12:15 PM,76.3,56.8,51,30.03,10.0,SSE,4.6,-,N/A,,Clear,150,2012-10-03 17:15:00
12:35 PM,77.2,56.7,49,30.02,10.0,SE,3.5,-,N/A,,Clear,140,2012-10-03 17:35:00
12:55 PM,77.2,56.1,48,30.02,10.0,Calm,Calm,-,N/A,,Clear,0,2012-10-03 17:55:00
1:15 PM,78.3,55.4,45,30.01,10.0,South,8.1,-,N/A,,Clear,180,2012-10-03 18:15:00
1:35 PM,78.8,54.0,42,30.00,10.0,SSE,8.1,-,N/A,,Clear,160,2012-10-03 18:35:00
1:55 PM,79.0,53.6,41,29.99,10.0,SSE,10.4,-,N/A,,Clear,150,2012-10-03 18:55:00
2:15 PM,79.5,53.4,40,29.99,10.0,SE,6.9,-,N/A,,Clear,140,2012-10-03 19:15:00
2:35 PM,79.9,53.4,40,29.98,10.0,SE,5.8,-,N/A,,Clear,140,2012-10-03 19:35:00
2:55 PM,80.4,52.7,38,29.97,10.0,SSW,4.6,-,N/A,,Clear,200,2012-10-03 19:55:00
3:15 PM,80.6,51.6,36,29.96,10.0,South,9.2,-,N/A,,Clear,180,2012-10-03 20:15:00
3:35 PM,81.0,52.3,37,29.96,10.0,SSE,8.1,-,N/A,,Clear,150,2012-10-03 20:35:00
3:55 PM,81.1,52.3,37,29.96,10.0,SE,11.5,-,N/A,,Clear,140,2012-10-03 20:55:00
4:15 PM,81.3,51.8,36,29.96,10.0,SSE,8.1,-,N/A,,Clear,160,2012-10-03 21:15:00
4:35 PM,81.1,51.6,36,29.96,10.0,SSE,9.2,-,N/A,,Clear,150,2012-10-03 21:35:00
4:55 PM,81.0,51.3,36,29.96,10.0,SSE,11.5,-,N/A,,Clear,160,2012-10-03 21:55:00
5:15 PM,80.8,50.7,35,29.97,10.0,South,9.2,-,N/A,,Clear,170,2012-10-03 22:15:00
5:35 PM,80.4,51.3,36,29.97,10.0,South,6.9,-,N/A,,Clear,180,2012-10-03 22:35:00
5:55 PM,79.9,51.4,37,29.97,10.0,South,5.8,-,N/A,,Clear,180,2012-10-03 22:55:00
6:15 PM,79.0,52.0,39,29.98,10.0,South,5.8,-,N/A,,Clear,180,2012-10-03 23:15:00
6:35 PM,77.5,51.8,41,29.98,10.0,South,5.8,-,N/A,,Clear,170,2012-10-03 23:35:00
6:55 PM,75.4,52.7,45,29.98,10.0,SSE,3.5,-,N/A,,Clear,160,2012-10-03 23:55:00
7:15 PM,73.2,53.8,50,29.98,10.0,Calm,Calm,-,N/A,,Clear,0,2012-10-04 00:15:00
7:35 PM,71.1,53.1,53,29.98,10.0,Calm,Calm,-,N/A,,Clear,0,2012-10-04 00:35:00
7:55 PM,68.9,54.9,61,29.99,10.0,Calm,Calm,-,N/A,,Clear,0,2012-10-04 00:55:00
8:15 PM,66.6,57.2,72,29.99,10.0,Calm,Calm,-,N/A,,Clear,0,2012-10-04 01:15:00
8:35 PM,66.0,55.8,69,30.00,10.0,Calm,Calm,-,N/A,,Clear,0,2012-10-04 01:35:00
8:55 PM,65.1,55.6,71,30.01,10.0,Calm,Calm,-,N/A,,Clear,0,2012-10-04 01:55:00
9:15 PM,64.8,56.5,74,30.01,10.0,Calm,Calm,-,N/A,,Clear,0,2012-10-04 02:15:00
9:35 PM,64.2,56.3,75,30.01,10.0,Calm,Calm,-,N/A,,Clear,0,2012-10-04 02:35:00
9:55 PM,64.2,55.8,74,30.02,10.0,Calm,Calm,-,N/A,,Clear,0,2012-10-04 02:55:00
10:15 PM,63.3,55.4,75,30.03,10.0,Calm,Calm,-,N/A,,Clear,0,2012-10-04 03:15:00
10:35 PM,63.3,56.1,77,30.04,10.0,Calm,Calm,-,N/A,,Clear,0,2012-10-04 03:35:00
10:55 PM,62.6,57.4,83,30.04,10.0,Calm,Calm,-,N/A,,Clear,0,2012-10-04 03:55:00
11:15 PM,62.4,57.2,83,30.04,10.0,Calm,Calm,-,N/A,,Clear,0,2012-10-04 04:15:00
11:35 PM,62.2,57.2,84,30.04,10.0,Calm,Calm,-,N/A,,Clear,0,2012-10-04 04:35:00
11:55 PM,63.0,56.8,80,30.05,10.0,SSE,3.5,-,N/A,,Clear,150,2012-10-04 04:55:00